period_start,C,m1,H,J0,J1,J2,J3,J4,J5,JA,JB,JC,JD,JJ,JK,JN,#
2016-09-11 00:00:12,0.05,1.08,0.00,17.98,21.68,24.53,14.92,47.08,1030.83,2060.00,3138.31,2872.05,3255.22,599.84,614.69,28.76,0000 0000 0000 0000 000000
2016-09-11 00:05:13,0.05,1.08,0.00,18.00,21.69,24.55,14.86,47.13,1030.88,2060.00,3137.21,2871.50,3254.45,599.56,614.23,28.81,0000 0000 0000 0000 000000
2016-09-11 00:10:14,0.02,1.09,0.00,18.09,21.70,24.51,14.95,47.10,1030.84,2060.00,3136.35,2870.96,3253.91,599.98,614.64,28.86,0000 0000 0000 0000 000000
2016-09-11 00:15:15,0.05,1.09,0.00,18.09,21.72,24.60,14.81,46.88,1030.86,2059.99,3135.61,2870.14,3253.10,599.75,614.32,28.91,0000 0000 0000 0000 000000
2016-09-11 00:20:17,0.03,1.09,0.00,18.08,21.72,24.62,14.89,46.92,1030.89,2059.99,3134.98,2869.79,3252.44,599.77,614.37,28.96,0000 0000 0000 0000 000000
2016-09-11 00:25:18,0.03,1.09,0.00,18.09,21.74,24.60,14.91,47.16,1030.94,2059.98,3134.19,2869.06,3251.96,599.65,614.35,29.01,0000 0000 0000 0000 000000
2016-09-11 00:30:19,0.05,1.09,0.00,18.07,21.75,24.62,15.01,47.17,1030.83,2059.96,3133.57,2868.63,3251.17,600.40,614.76,29.06,0000 0000 0000 0000 000000
2016-09-11 00:35:20,0.02,1.10,0.00,18.08,21.77,24.64,14.89,47.13,1030.80,2059.96,3132.89,2868.01,3250.79,600.14,614.64,29.12,0000 0000 0000 0000 000000
2016-09-11 00:40:22,0.04,1.10,0.00,18.06,21.77,24.68,14.94,47.07,1030.81,2059.96,3132.18,2867.64,3250.09,600.14,614.75,29.17,0000 0000 0000 0000 000000
2016-09-11 00:45:23,0.03,1.10,0.00,18.09,21.79,24.67,14.86,46.88,1030.86,2059.81,3131.34,2867.02,3249.48,599.48,614.09,29.22,0000 0000 0000 0000 000000
2016-09-11 00:50:24,0.03,1.10,0.00,18.12,21.79,24.60,14.90,46.83,1031.03,2059.82,3130.43,2866.53,3248.93,599.73,614.44,29.27,0000 0000 0000 0000 000000
2016-09-11 00:55:26,0.01,1.10,0.00,18.11,21.80,24.70,14.98,47.04,1030.94,2059.69,3129.61,2865.99,3248.11,599.98,614.56,29.32,0000 0000 0000 0000 000000
2016-09-11 01:00:27,0.01,1.10,0.00,18.10,21.82,24.68,14.86,47.01,1030.83,2059.43,3129.01,2865.32,3247.80,599.89,614.37,29.37,0000 0000 0000 0000 000000
2016-09-11 01:05:28,0.01,1.10,0.00,18.13,21.82,24.70,14.89,46.89,1030.83,2059.11,3128.16,2864.96,3247.04,599.93,614.42,29.42,0000 0000 0000 0000 000000
2016-09-11 01:10:29,0.04,1.11,0.00,18.15,21.84,24.74,14.93,47.12,1030.83,2059.07,3127.66,2864.29,3246.50,600.25,614.73,29.47,0000 0000 0000 0000 000000
2016-09-11 01:15:30,0.02,1.11,0.00,18.12,21.84,24.69,14.90,47.06,1030.80,2059.07,3126.98,2864.00,3246.00,599.73,614.22,29.52,0000 0000 0000 0000 000000
2016-09-11 01:20:32,0.04,1.11,0.00,18.13,21.86,24.73,14.93,47.13,1030.80,2059.02,3126.13,2863.47,3245.33,599.85,614.30,29.57,0000 0000 0000 0000 000000
2016-09-11 01:25:33,0.01,1.11,0.00,18.12,21.87,24.75,14.93,47.04,1030.82,2059.00,3125.62,2863.01,3244.96,600.02,614.50,29.62,0000 0000 0000 0000 000000
2016-09-11 01:30:35,0.05,1.11,0.00,18.07,21.88,24.80,14.95,47.23,1030.78,2059.01,3124.79,2862.42,3244.18,600.04,614.66,29.67,0000 0000 0000 0000 000000
2016-09-11 01:35:36,0.02,1.11,0.00,18.12,21.89,24.84,14.96,47.21,1030.78,2059.00,3124.14,2862.01,3243.88,599.50,613.97,29.72,0000 0000 0000 0000 000000
2016-09-11 01:40:37,0.05,1.12,0.00,18.18,21.91,24.83,14.97,47.10,1030.78,2059.00,3123.40,2861.56,3243.14,600.06,614.34,29.77,0000 0000 0000 0000 000000
2016-09-11 01:45:38,0.02,1.12,0.00,18.14,21.92,24.83,14.90,47.13,1030.78,2059.00,3122.68,2861.01,3242.70,599.88,614.15,29.82,0000 0000 0000 0000 000000
2016-09-11 01:50:39,0.03,1.12,0.00,18.12,21.94,24.86,14.91,47.20,1030.78,2059.00,3122.01,2860.71,3242.03,600.12,614.59,29.87,0000 0000 0000 0000 000000
2016-09-11 01:55:40,0.05,1.12,0.00,18.13,21.94,24.89,14.95,47.19,1030.78,2058.99,3120.95,2860.06,3241.42,600.05,614.56,29.92,0000 0000 0000 0000 000000
2016-09-11 02:00:42,0.03,1.12,0.00,18.23,21.97,24.91,15.01,47.27,1030.78,2058.98,3120.11,2859.47,3240.95,600.51,614.72,29.97,0000 0000 0000 0000 000000
2016-09-11 02:05:43,0.03,1.13,0.00,18.29,21.98,24.85,14.98,47.30,1030.78,2058.98,3119.62,2859.01,3240.20,600.34,614.50,30.02,0000 0000 0000 0000 000000
2016-09-11 02:10:44,0.02,1.13,0.00,18.30,21.99,24.94,14.91,47.08,1030.78,2058.96,3118.96,2858.76,3239.91,599.96,614.12,30.07,0000 0000 0000 0000 000000
2016-09-11 02:15:46,0.04,1.13,0.00,18.25,22.01,24.94,14.88,47.09,1030.78,2058.92,3118.15,2858.05,3239.12,600.03,614.23,30.12,0000 0000 0000 0000 000000
2016-09-11 02:20:47,-0.00,1.13,0.00,18.28,22.02,24.99,14.97,47.05,1030.78,2058.78,3117.72,2857.92,3238.85,600.27,614.36,30.17,0000 0000 0000 0000 000000
2016-09-11 02:25:48,0.03,1.13,0.00,18.34,22.03,24.98,14.86,47.09,1030.78,2058.48,3117.01,2857.17,3238.11,599.71,613.83,30.22,0000 0000 0000 0000 000000
2016-09-11 02:30:50,-0.02,1.13,0.00,18.34,22.04,24.91,14.88,47.02,1030.78,2058.16,3116.32,2856.94,3237.72,599.58,613.46,30.27,0000 0000 0000 0000 000000
2016-09-11 02:35:51,0.04,1.13,0.00,18.38,22.07,24.94,14.84,47.02,1030.78,2058.06,3115.63,2856.18,3237.03,599.96,613.87,30.32,0000 0000 0000 0000 000000
2016-09-11 02:40:52,0.02,1.13,0.00,18.39,22.07,24.99,14.81,46.99,1030.78,2058.04,3115.01,2856.00,3236.57,599.62,613.50,30.37,0000 0000 0000 0000 000000
2016-09-11 02:45:53,0.04,1.14,0.00,18.42,22.09,25.01,14.87,46.99,1030.78,2058.02,3114.19,2855.49,3236.00,599.94,613.79,30.42,0000 0000 0000 0000 000000
2016-09-11 02:50:55,0.02,1.14,0.00,18.42,22.11,25.04,15.04,47.19,1030.78,2058.00,3113.74,2855.01,3235.40,600.39,614.32,30.47,0000 0000 0000 0000 000000
2016-09-11 02:55:56,0.01,1.14,0.00,18.40,22.12,25.09,14.89,47.01,1030.78,2058.01,3113.02,2854.85,3235.01,599.87,613.73,30.52,0000 0000 0000 0000 000000
2016-09-11 03:00:57,0.05,1.14,0.00,18.41,22.14,25.10,14.89,46.94,1030.77,2058.01,3112.30,2854.12,3234.55,600.11,613.96,30.57,0000 0000 0000 0000 000000
2016-09-11 03:05:58,0.00,1.14,0.00,18.42,22.14,25.11,14.87,47.13,1030.77,2058.00,3111.98,2853.98,3234.02,599.41,613.40,30.62,0000 0000 0000 0000 000000
2016-09-11 03:10:59,0.05,1.14,0.00,18.44,22.17,25.15,14.83,46.99,1030.74,2058.00,3111.21,2853.45,3233.51,599.63,613.45,30.67,0000 0000 0000 0000 000000
2016-09-11 03:16:01,0.02,1.14,0.00,18.39,22.18,25.13,14.96,47.13,1030.71,2058.00,3110.33,2853.01,3232.99,600.06,613.91,30.72,0000 0000 0000 0000 000000
2016-09-11 03:21:02,0.03,1.15,0.00,18.40,22.19,25.17,14.98,47.18,1030.51,2058.00,3109.82,2852.73,3232.50,600.20,613.91,30.77,0000 0000 0000 0000 000000
2016-09-11 03:26:03,0.03,1.15,0.00,18.45,22.21,25.18,14.91,46.94,1030.32,2057.99,3109.10,2852.04,3231.98,600.11,613.72,30.82,0000 0000 0000 0000 000000
2016-09-11 03:31:04,0.02,1.15,0.00,18.48,22.23,25.22,14.93,47.23,1030.32,2057.99,3108.58,2851.94,3231.37,599.90,613.24,30.87,0000 0000 0000 0000 000000
2016-09-11 03:36:05,0.03,1.15,0.00,18.54,22.24,25.22,14.94,47.20,1030.29,2057.99,3108.00,2851.26,3230.99,599.91,613.20,30.92,0000 0000 0000 0000 000000
2016-09-11 03:41:07,0.02,1.15,0.00,18.49,22.27,25.27,14.93,47.27,1030.29,2057.98,3107.34,2851.01,3230.39,600.25,613.57,30.97,0000 0000 0000 0000 000000
2016-09-11 03:46:08,0.00,1.15,0.00,18.58,22.28,25.23,14.94,47.23,1030.29,2057.93,3106.96,2850.79,3230.00,600.38,613.70,31.02,0000 0000 0000 0000 000000
2016-09-11 03:51:09,0.03,1.15,0.00,18.59,22.30,25.23,14.89,47.16,1030.29,2057.82,3106.21,2850.08,3229.48,600.33,613.54,31.07,0000 0000 0000 0000 000000
2016-09-11 03:56:11,0.02,1.16,0.00,18.59,22.32,25.33,14.94,47.34,1030.29,2057.70,3105.65,2849.97,3229.00,600.20,613.40,31.12,0000 0000 0000 0000 000000
2016-09-11 04:01:12,-0.00,1.16,0.00,18.60,22.34,25.30,15.01,47.29,1030.27,2057.29,3105.06,2849.43,3228.53,600.45,613.60,31.17,0000 0000 0000 0000 000000
2016-09-11 04:06:14,0.01,1.16,0.00,18.63,22.37,25.34,14.95,47.27,1030.03,2057.16,3104.44,2849.01,3228.01,600.17,613.01,31.22,0000 0000 0000 0000 000000
2016-09-11 04:11:15,0.02,1.16,0.00,18.60,22.38,25.37,14.86,47.27,1029.86,2057.07,3103.94,2848.84,3227.68,599.94,612.84,31.27,0000 0000 0000 0000 000000
2016-09-11 04:16:16,0.04,1.16,0.00,18.57,22.40,25.42,14.91,47.28,1029.94,2057.03,3103.16,2848.07,3227.00,599.97,612.99,31.32,0000 0000 0000 0000 000000
2016-09-11 04:21:18,0.02,1.16,0.00,18.65,22.42,25.38,14.92,47.21,1030.06,2057.01,3102.46,2847.98,3226.42,600.22,613.08,31.37,0000 0000 0000 0000 000000
2016-09-11 04:26:19,0.03,1.16,0.00,18.72,22.44,25.40,14.77,47.01,1029.91,2057.00,3102.00,2847.41,3226.00,599.76,612.45,31.42,0000 0000 0000 0000 000000
2016-09-11 04:31:20,0.03,1.16,0.00,18.76,22.47,25.39,14.89,47.13,1029.90,2057.00,3101.43,2847.02,3225.53,600.16,612.79,31.47,0000 0000 0000 0000 000000
2016-09-11 04:36:22,0.01,1.16,0.00,18.86,22.49,25.45,14.88,47.17,1029.81,2057.00,3100.95,2846.84,3225.02,600.00,612.32,31.52,0000 0000 0000 0000 000000
2016-09-11 04:41:23,0.05,1.17,0.00,18.92,22.51,25.48,14.83,47.17,1029.80,2056.99,3100.25,2846.14,3224.43,600.07,612.28,31.57,0000 0000 0000 0000 000000
2016-09-11 04:46:25,0.01,1.17,0.00,18.95,22.53,25.51,14.89,47.30,1029.66,2056.97,3099.71,2845.98,3224.00,600.20,612.18,31.62,0000 0000 0000 0000 000000
2016-09-11 04:51:26,0.04,1.17,0.00,18.93,22.56,25.56,14.92,47.30,1029.60,2056.95,3099.05,2845.47,3223.61,600.46,612.54,31.67,0000 0000 0000 0000 000000
2016-09-11 04:56:27,0.01,1.17,0.00,18.95,22.59,25.61,14.92,47.22,1029.68,2056.89,3098.72,2845.01,3223.03,600.14,612.21,31.72,0000 0000 0000 0000 000000
2016-09-11 05:01:28,-0.04,1.17,0.00,18.99,22.61,25.62,14.82,47.20,1029.80,2056.40,3098.05,2844.96,3222.79,599.89,612.14,31.77,0000 0000 0000 0000 000000
2016-09-11 05:06:30,0.02,1.17,0.00,19.00,22.63,25.64,14.83,47.24,1029.80,2056.12,3097.88,2844.41,3222.10,599.83,611.85,31.82,0000 0000 0000 0000 000000
2016-09-11 05:11:31,0.01,1.17,0.00,18.99,22.66,25.70,14.87,47.21,1029.80,2056.02,3097.06,2844.01,3221.88,599.86,611.89,31.87,0000 0000 0000 0000 000000
2016-09-11 05:16:32,0.02,1.17,0.00,19.06,22.68,25.70,14.91,47.27,1029.80,2056.01,3096.79,2843.97,3221.19,599.91,611.82,31.92,0000 0000 0000 0000 000000
2016-09-11 05:21:33,0.04,1.17,0.00,19.04,22.71,25.77,14.84,47.10,1029.80,2056.00,3096.08,2843.26,3220.99,600.16,612.12,31.97,0000 0000 0000 0000 000000
2016-09-11 05:26:34,0.02,1.17,0.00,19.13,22.73,25.76,14.92,47.18,1029.80,2056.00,3095.73,2843.01,3220.62,599.93,611.68,32.03,0000 0000 0000 0000 000000
2016-09-11 05:31:36,0.01,1.18,0.00,19.19,22.76,25.77,14.78,47.16,1029.80,2056.00,3095.04,2842.94,3220.02,599.24,610.88,32.08,0000 0000 0000 0000 000000
2016-09-11 05:36:37,0.03,1.18,0.00,19.32,22.78,25.81,14.82,47.16,1029.70,2055.99,3094.78,2842.32,3219.88,599.76,611.12,32.13,0000 0000 0000 0000 000000
2016-09-11 05:41:38,0.03,1.18,0.00,19.37,22.81,25.84,14.86,47.13,1029.66,2055.97,3094.07,2842.01,3219.10,600.09,611.42,32.18,0000 0000 0000 0000 000000
2016-09-11 05:46:39,-0.00,1.18,0.00,19.37,22.84,25.82,14.80,47.02,1029.60,2055.90,3093.79,2841.93,3218.96,599.97,611.06,32.23,0000 0000 0000 0000 000000
2016-09-11 05:51:41,0.01,1.18,0.00,19.46,22.87,25.85,14.86,47.13,1029.66,2055.53,3093.09,2841.22,3218.33,600.17,611.15,32.28,0000 0000 0000 0000 000000
2016-09-11 05:56:42,-0.01,1.18,0.00,19.56,22.90,25.91,14.77,46.83,1029.64,2055.14,3092.60,2841.00,3217.98,599.96,610.73,32.33,0000 0000 0000 0000 000000
2016-09-11 06:01:44,0.01,1.18,0.00,19.63,22.93,25.91,14.82,47.09,1029.52,2055.02,3092.03,2840.87,3217.44,599.94,610.41,32.38,0000 0000 0000 0000 000000
2016-09-11 06:06:45,0.03,1.18,0.00,19.60,22.96,25.94,14.84,47.33,1029.54,2055.01,3091.73,2840.16,3217.00,599.73,610.44,32.43,0000 0000 0000 0000 000000
2016-09-11 06:11:46,0.02,1.18,0.00,19.63,22.99,26.03,14.88,47.01,1029.45,2055.00,3091.03,2839.99,3216.61,600.13,610.64,32.48,0000 0000 0000 0000 000000
2016-09-11 06:16:47,0.03,1.18,0.00,19.62,23.02,26.00,14.82,47.08,1029.35,2054.98,3090.46,2839.53,3216.01,599.97,610.38,32.53,0000 0000 0000 0000 000000
2016-09-11 06:21:48,0.02,1.18,0.00,19.68,23.05,26.01,14.86,47.33,1029.34,2054.98,3089.94,2839.03,3215.49,600.16,610.52,32.58,0000 0000 0000 0000 000000
2016-09-11 06:26:50,0.01,1.19,0.00,19.72,23.08,26.11,14.85,47.17,1029.48,2054.93,3089.24,2838.95,3215.01,600.21,610.48,32.63,0000 0000 0000 0000 000000
2016-09-11 06:31:51,-0.01,1.19,0.00,19.75,23.11,26.12,14.90,47.12,1029.72,2054.57,3088.96,2838.26,3214.75,600.36,610.84,32.68,0000 0000 0000 0000 000000
2016-09-11 06:36:52,-0.01,1.18,0.00,19.82,23.14,26.16,14.80,47.15,1029.78,2054.13,3088.63,2838.01,3214.18,600.00,610.36,32.73,0000 0000 0000 0000 000000
2016-09-11 06:41:54,-0.00,1.18,0.00,19.89,23.18,26.20,14.83,47.08,1029.81,2054.03,3088.09,2837.99,3213.99,600.17,610.37,32.78,0000 0000 0000 0000 000000
2016-09-11 06:46:55,0.02,1.18,0.00,19.94,23.21,26.20,14.81,47.10,1029.83,2054.00,3087.96,2837.62,3213.74,599.73,609.81,32.83,0000 0000 0000 0000 000000
2016-09-11 06:51:56,0.03,1.19,0.00,20.01,23.25,26.30,14.79,47.08,1029.83,2053.99,3087.35,2837.04,3213.05,599.81,609.76,32.88,0000 0000 0000 0000 000000
2016-09-11 06:56:57,0.00,1.19,0.00,20.04,23.28,26.33,14.81,46.98,1029.81,2053.98,3087.00,2836.99,3212.95,600.10,610.00,32.93,0000 0000 0000 0000 000000
2016-09-11 07:01:59,0.03,1.19,0.00,20.08,23.33,26.36,14.81,46.92,1029.80,2053.90,3086.62,2836.73,3212.21,599.93,609.75,32.99,0000 0000 0000 0000 000000
2016-09-11 07:07:00,-0.03,1.19,0.00,20.16,23.36,26.40,14.80,46.93,1029.80,2053.46,3086.04,2836.04,3212.00,599.90,609.59,33.04,0000 0000 0000 0000 000000
2016-09-11 07:12:01,-0.01,1.19,0.00,20.20,23.40,26.45,14.87,47.01,1029.81,2053.08,3085.95,2836.00,3211.85,600.32,609.86,33.09,0000 0000 0000 0000 000000
2016-09-11 07:17:02,0.03,1.19,0.00,20.25,23.44,26.51,14.77,47.08,1029.84,2053.00,3085.42,2835.70,3211.23,600.03,609.47,33.14,0000 0000 0000 0000 000000
2016-09-11 07:22:04,0.03,1.19,0.00,20.29,23.48,26.52,14.78,47.10,1029.96,2053.00,3084.74,2835.05,3210.74,599.88,609.26,33.19,0000 0000 0000 0000 000000
2016-09-11 07:27:05,0.01,1.19,0.00,20.35,23.52,26.56,14.81,47.07,1030.04,2052.98,3084.07,2834.99,3210.05,600.05,609.39,33.24,0000 0000 0000 0000 000000
2016-09-11 07:32:06,0.02,1.19,0.00,20.37,23.56,26.62,14.79,47.17,1030.23,2052.91,3083.93,2834.58,3209.97,599.88,609.29,33.29,0000 0000 0000 0000 000000
2016-09-11 07:37:07,-0.03,1.19,0.00,20.40,23.60,26.66,14.77,47.08,1030.20,2052.41,3083.12,2834.02,3209.21,600.02,609.31,33.34,0000 0000 0000 0000 000000
2016-09-11 07:42:08,-0.01,1.19,0.00,20.44,23.64,26.70,14.81,47.17,1029.99,2052.05,3082.85,2833.90,3208.98,600.13,609.16,33.39,0000 0000 0000 0000 000000
2016-09-11 07:47:10,0.04,1.19,0.00,20.49,23.69,26.73,14.72,47.02,1030.10,2052.01,3082.26,2833.22,3208.44,599.99,609.15,33.44,0000 0000 0000 0000 000000
2016-09-11 07:52:11,0.00,1.19,0.00,20.55,23.73,26.74,14.76,46.99,1030.22,2052.00,3082.00,2833.00,3208.00,600.01,609.06,33.49,0000 0000 0000 0000 000000
2016-09-11 07:57:13,0.00,1.19,0.00,20.58,23.77,26.81,14.83,46.98,1030.28,2051.96,3081.82,2832.91,3207.91,600.15,609.15,33.54,0000 0000 0000 0000 000000
2016-09-11 08:02:14,0.02,1.19,0.00,20.60,23.81,26.84,14.82,46.99,1030.25,2051.76,3081.06,2832.27,3207.16,600.23,609.25,33.59,0000 0000 0000 0000 000000
2016-09-11 08:07:15,-0.04,1.19,0.00,20.63,23.85,26.90,14.78,46.99,1030.22,2051.16,3080.66,2832.00,3206.92,599.85,608.71,33.64,0000 0000 0000 0000 000000
2016-09-11 08:12:16,0.02,1.19,0.00,20.67,23.89,26.93,14.73,46.84,1030.29,2051.01,3080.02,2831.78,3206.17,600.08,608.89,33.69,0000 0000 0000 0000 000000
2016-09-11 08:17:17,0.03,1.19,0.00,20.70,23.93,26.98,14.85,47.00,1030.29,2051.00,3079.64,2831.11,3205.97,600.25,609.07,33.74,0000 0000 0000 0000 000000
2016-09-11 08:22:18,0.02,1.20,0.00,20.74,23.97,27.03,14.72,46.79,1030.29,2051.00,3079.02,2830.98,3205.22,599.81,608.61,33.79,0000 0000 0000 0000 000000
2016-09-11 08:27:19,0.03,1.20,0.00,20.77,24.01,27.07,14.74,46.76,1030.29,2050.96,3078.67,2830.47,3204.99,600.29,608.96,33.84,0000 0000 0000 0000 000000
2016-09-11 08:32:20,-0.03,1.20,0.00,20.80,24.05,27.12,14.82,46.89,1030.29,2050.59,3078.04,2830.02,3204.41,599.95,608.51,33.89,0000 0000 0000 0000 000000
2016-09-11 08:37:22,-0.01,1.20,0.00,20.83,24.09,27.14,14.79,46.93,1030.30,2050.07,3077.61,2829.90,3204.00,600.07,608.57,33.95,0000 0000 0000 0000 000000
2016-09-11 08:42:23,0.03,1.20,0.00,20.86,24.12,27.17,14.78,46.76,1030.37,2050.01,3077.02,2829.27,3203.67,600.13,608.71,34.00,0000 0000 0000 0000 000000
2016-09-11 08:47:24,0.02,1.20,0.00,20.89,24.16,27.22,14.73,47.17,1030.56,2050.00,3076.65,2829.00,3203.02,599.67,608.28,34.05,0000 0000 0000 0000 000000
2016-09-11 08:52:26,0.03,1.20,0.00,20.92,24.20,27.26,14.72,47.09,1030.75,2049.99,3075.99,2828.67,3202.54,599.59,608.18,34.10,0000 0000 0000 0000 000000
2016-09-11 08:57:27,0.02,1.20,0.00,20.95,24.24,27.29,14.77,47.02,1030.76,2049.97,3075.40,2828.05,3202.02,600.02,608.53,34.15,0000 0000 0000 0000 000000
2016-09-11 09:02:28,-0.04,1.20,0.00,20.97,24.27,27.29,14.75,46.98,1030.70,2049.59,3075.00,2827.98,3201.75,599.94,608.44,34.20,0000 0000 0000 0000 000000
2016-09-11 09:07:29,0.02,1.20,0.00,20.99,24.31,27.34,14.75,47.02,1030.78,2049.10,3074.55,2827.50,3201.09,599.79,608.34,34.25,0000 0000 0000 0000 000000
2016-09-11 09:12:30,0.01,1.20,0.00,21.03,24.35,27.38,14.80,46.92,1030.78,2049.01,3074.01,2827.02,3200.88,600.27,608.66,34.30,0000 0000 0000 0000 000000
2016-09-11 09:17:32,0.03,1.20,0.00,21.06,24.38,27.41,14.67,46.94,1030.78,2049.00,3073.46,2826.90,3200.11,599.60,607.95,34.35,0000 0000 0000 0000 000000
2016-09-11 09:22:33,0.03,1.20,0.00,21.08,24.42,27.47,14.81,46.98,1030.77,2049.00,3072.97,2826.19,3199.83,599.95,608.24,34.40,0000 0000 0000 0000 000000
2016-09-11 09:27:34,0.02,1.21,0.00,21.11,24.46,27.50,14.76,46.94,1030.76,2048.97,3072.16,2825.99,3199.09,600.09,608.31,34.45,0000 0000 0000 0000 000000
2016-09-11 09:32:36,0.01,1.21,0.00,21.11,24.49,27.53,14.75,46.80,1030.78,2048.79,3071.83,2825.50,3198.98,599.73,607.94,34.50,0000 0000 0000 0000 000000
2016-09-11 09:37:37,-0.00,1.21,0.00,21.14,24.52,27.56,14.76,46.89,1030.78,2048.45,3071.07,2825.03,3198.39,599.93,608.10,34.55,0000 0000 0000 0000 000000
2016-09-11 09:42:38,-0.01,1.21,0.00,21.15,24.55,27.59,14.75,46.93,1030.78,2048.19,3070.94,2824.98,3198.00,599.86,608.09,34.60,0000 0000 0000 0000 000000
2016-09-11 09:47:40,0.04,1.21,0.00,21.19,24.58,27.62,14.80,46.95,1030.78,2048.02,3070.19,2824.43,3197.48,599.88,608.08,34.65,0000 0000 0000 0000 000000
2016-09-11 09:52:41,0.00,1.21,0.00,21.22,24.62,27.67,14.73,46.82,1030.74,2048.00,3069.94,2824.01,3197.01,600.09,608.05,34.70,0000 0000 0000 0000 000000
2016-09-11 09:57:42,0.02,1.21,0.00,21.23,24.65,27.68,14.72,46.77,1030.77,2047.98,3069.16,2823.95,3196.78,600.11,608.12,34.75,0000 0000 0000 0000 000000
2016-09-11 10:02:44,0.04,1.21,0.00,21.27,24.68,27.72,14.71,46.78,1030.78,2047.93,3068.71,2823.16,3196.04,599.90,607.79,34.80,0000 0000 0000 0000 000000
2016-09-11 10:07:45,-0.03,1.21,0.00,21.30,24.71,27.72,14.80,46.82,1030.78,2047.56,3068.03,2822.99,3195.76,600.02,607.86,34.86,0000 0000 0000 0000 000000
2016-09-11 10:12:46,-0.01,1.21,0.00,21.34,24.73,27.76,14.71,46.89,1030.78,2047.19,3067.83,2822.84,3195.07,599.81,607.56,34.91,0000 0000 0000 0000 000000
2016-09-11 10:17:48,0.03,1.21,0.00,21.31,24.76,27.79,14.70,46.81,1030.78,2047.03,3067.05,2822.08,3194.89,599.66,607.46,34.96,0000 0000 0000 0000 000000
2016-09-11 10:22:49,0.01,1.21,0.00,21.33,24.79,27.82,14.74,46.72,1030.78,2047.00,3066.77,2821.99,3194.16,600.10,607.86,35.01,0000 0000 0000 0000 000000
2016-09-11 10:27:50,0.04,1.21,0.00,21.34,24.82,27.84,14.74,46.81,1030.78,2047.00,3065.90,2821.53,3193.80,600.23,607.90,35.06,0000 0000 0000 0000 000000
2016-09-11 10:32:51,0.12,1.22,0.00,21.35,24.85,27.88,14.77,46.78,1030.78,2047.00,3063.77,2819.95,3192.10,600.09,607.84,35.11,0000 0000 0000 0000 000000
2016-09-11 10:37:53,0.05,1.22,0.00,21.38,24.87,27.89,14.72,46.81,1030.78,2047.00,3062.37,2819.03,3191.05,599.76,607.41,35.16,0000 0000 0000 0000 000000
2016-09-11 10:42:54,0.01,1.22,0.00,21.43,24.90,27.96,14.74,46.81,1030.78,2047.00,3061.95,2818.88,3190.67,600.25,607.78,35.21,0000 0000 0000 0000 000000
2016-09-11 10:47:55,0.04,1.23,0.00,21.43,24.92,27.98,14.78,46.81,1030.78,2047.00,3061.13,2818.10,3190.03,600.15,607.72,35.26,0000 0000 0000 0000 000000
2016-09-11 10:52:57,0.01,1.23,0.00,21.43,24.95,27.99,14.80,46.83,1030.79,2046.99,3060.89,2818.00,3189.82,600.25,607.76,35.31,0000 0000 0000 0000 000000
2016-09-11 10:57:58,0.03,1.23,0.00,21.45,24.97,28.03,14.74,46.87,1030.79,2046.97,3060.12,2817.82,3189.06,599.93,607.51,35.36,0000 0000 0000 0000 000000
2016-09-11 11:02:59,0.01,1.23,0.00,21.47,24.99,28.03,14.74,46.89,1030.87,2046.83,3059.89,2817.12,3188.97,599.81,607.41,35.41,0000 0000 0000 0000 000000
2016-09-11 11:08:00,-0.03,1.23,0.00,21.49,25.01,28.06,14.80,47.02,1030.82,2046.30,3059.09,2816.99,3188.29,600.42,607.84,35.46,0000 0000 0000 0000 000000
2016-09-11 11:13:02,0.01,1.23,0.00,21.49,25.03,28.05,14.76,46.96,1030.97,2046.04,3058.74,2816.73,3187.99,600.04,607.57,35.51,0000 0000 0000 0000 000000
2016-09-11 11:18:03,0.03,1.23,0.00,21.48,25.06,28.11,14.70,46.94,1031.19,2046.01,3058.05,2816.09,3187.44,599.82,607.52,35.56,0000 0000 0000 0000 000000
2016-09-11 11:23:04,0.01,1.23,0.00,21.50,25.07,28.15,14.76,47.00,1031.21,2046.00,3057.61,2816.00,3187.00,599.83,607.49,35.61,0000 0000 0000 0000 000000
2016-09-11 11:28:06,0.01,1.23,0.00,21.52,25.10,28.16,14.76,46.88,1031.05,2046.00,3057.02,2815.89,3186.79,600.06,607.60,35.66,0000 0000 0000 0000 000000
2016-09-11 11:33:07,0.04,1.23,0.00,21.52,25.12,28.17,14.82,46.93,1030.84,2046.00,3056.67,2815.21,3186.09,600.28,607.64,35.71,0000 0000 0000 0000 000000
2016-09-11 11:38:08,0.01,1.23,0.00,21.56,25.14,28.21,14.72,46.75,1030.91,2045.99,3056.05,2815.01,3185.99,600.17,607.51,35.77,0000 0000 0000 0000 000000
2016-09-11 11:43:10,0.01,1.23,0.00,21.55,25.16,28.22,14.74,46.94,1031.03,2045.97,3055.99,2814.97,3185.69,600.09,607.46,35.82,0000 0000 0000 0000 000000
2016-09-11 11:48:11,0.03,1.24,0.00,21.57,25.17,28.26,14.77,46.82,1030.91,2045.96,3055.45,2814.71,3185.06,600.09,607.44,35.87,0000 0000 0000 0000 000000
2016-09-11 11:53:12,-0.02,1.24,0.00,21.56,25.20,28.26,14.70,46.84,1030.83,2045.52,3054.96,2814.04,3184.96,599.71,607.00,35.92,0000 0000 0000 0000 000000
2016-09-11 11:58:14,0.01,1.24,0.00,21.61,25.21,28.30,14.73,47.00,1030.87,2045.25,3054.20,2813.99,3184.28,600.12,607.34,35.97,0000 0000 0000 0000 000000
2016-09-11 12:03:15,-0.00,1.24,0.00,21.61,25.23,28.29,14.73,46.80,1030.90,2045.18,3053.99,2813.92,3184.01,600.03,607.34,36.02,0000 0000 0000 0000 000000
2016-09-11 12:08:16,0.02,1.24,0.00,21.63,25.25,28.32,14.76,46.85,1031.18,2045.06,3053.68,2813.32,3183.97,599.98,607.37,36.07,0000 0000 0000 0000 000000
2016-09-11 12:13:17,0.02,1.24,0.00,21.63,25.27,28.29,14.74,46.81,1031.09,2045.01,3053.04,2813.00,3183.38,599.89,607.24,36.12,0000 0000 0000 0000 000000
2016-09-11 12:18:19,0.01,1.24,0.00,21.64,25.28,28.32,14.69,46.88,1030.83,2045.02,3052.71,2812.99,3183.01,599.61,606.79,36.17,0000 0000 0000 0000 000000
2016-09-11 12:23:20,0.02,1.24,0.00,21.66,25.30,28.34,14.66,46.87,1030.83,2045.00,3052.03,2812.71,3182.83,599.56,606.70,36.22,0000 0000 0000 0000 000000
2016-09-11 12:28:21,0.03,1.24,0.00,21.67,25.32,28.37,14.69,46.86,1030.80,2045.00,3051.66,2812.05,3182.09,599.72,606.80,36.27,0000 0000 0000 0000 000000
2016-09-11 12:33:23,0.00,1.24,0.00,21.67,25.33,28.37,14.69,46.83,1030.81,2044.99,3051.04,2812.00,3181.99,599.88,606.96,36.32,0000 0000 0000 0000 000000
2016-09-11 12:38:24,0.02,1.24,0.00,21.68,25.35,28.37,14.76,46.96,1030.88,2044.99,3050.78,2811.87,3181.49,600.17,607.29,36.37,0000 0000 0000 0000 000000
2016-09-11 12:43:25,0.03,1.24,0.00,21.70,25.37,28.39,14.76,46.75,1030.96,2044.97,3050.10,2811.17,3181.02,599.62,606.72,36.42,0000 0000 0000 0000 000000
2016-09-11 12:48:27,0.00,1.24,0.00,21.72,25.38,28.43,14.78,46.89,1030.89,2044.98,3049.99,2811.01,3180.98,599.85,606.86,36.47,0000 0000 0000 0000 000000
2016-09-11 12:53:28,0.02,1.25,0.00,21.71,25.40,28.44,14.86,46.88,1030.96,2044.91,3049.27,2810.98,3180.31,600.49,607.45,36.52,0000 0000 0000 0000 000000